Regional Weather Roundup
Issued by NWS

Home | Current Version | Previous Version | Graphics & Text | Print | Product List | Glossary On
Versions: 1 2 3 4 5 6 7 8 9 10 11 12 13 14 15 16 17 18 19 20 21 22 23 24 25 26 27 28 29 30 31 32 33 34 35 36 37 38 39 40 41 42 43 44 45 46 47 48 49 50
000
ASUS43 KMKX 191510
RWRWI

WISCONSIN REGIONAL WEATHER ROUNDUP
NATIONAL WEATHER SERVICE MILWAUKEE/SULLIVAN WI
900 AM CST FRI JAN 19 2018

NOTE: "FAIR" INDICATES FEW OR NO CLOUDS BELOW 12,000 FEET WITH NO
SIGNIFICANT WEATHER AND/OR OBSTRUCTIONS TO VISIBILITY.

WIZ001-002-006>008-014>016-023>028-191600-
NORTHWEST WISCONSIN

CITY           SKY/WX    TMP DP  RH WIND       PRES   REMARKS
SUPERIOR ARPT  FAIR      31  26  84 SW10      29.51F WCI  22
ASHLAND        NOT AVBL
HAYWARD        FAIR      28  23  81 N3        29.57R
SIREN          FAIR      32  25  75 CALM      29.55F
CUMBERLAND     FAIR      27  23  86 S6        29.58S WCI  20
RICE LAKE      FAIR      26  24  91 SE7       29.60F WCI  19
CHETEK         FAIR      25  23  90 E3        29.61S
LADYSMITH      FAIR      26  23  87 S7        29.62S WCI  18
EAU CLAIRE     FAIR      27  22  81 S6        29.63S WCI  20
MENOMONIE      FAIR      28  23  82 E5        29.63S WCI  22
NEW RICHMOND   FAIR      29  23  78 S9        29.59F WCI  21
OSCEOLA        FAIR      31  25  78 S6        29.61S WCI  26
$$

WIZ003>005-009-010-017-018-191600-
NORTH CENTRAL WISCONSIN

CITY           SKY/WX    TMP DP  RH WIND       PRES   REMARKS
MANITOWISH WTR FAIR      25  25 100 S7        29.55F WCI  18
ARBOR VITAE    FAIR      25  23  91 S6        29.57S WCI  18
WOODRUFF       FAIR      25  23  91 S6        29.57S WCI  18
RHINELANDER    FAIR      25  22  88 SW9       29.60R WCI  15
EAGLE RIVER    FAIR      24  24 100 SW7       29.57S WCI  15
LAND O LAKES   FAIR      25  24  97 SW5       29.58R WCI  19
PHILLIPS       FAIR      26  23  89 S10       29.57F WCI  16
TOMAHAWK       FAIR      23  21  92 S5        29.62S WCI  17
MEDFORD        FAIR      24  20  85 S10       29.62F WCI  13
MERRILL        FAIR      24  21  89 SW6       29.66R WCI  16
$$

WIZ029-030-035-036-043>047-191600-
CENTRAL WISCONSIN

CITY           SKY/WX    TMP DP  RH WIND       PRES   REMARKS
WAUSAU         FAIR      22  19  89 SW6       29.66R WCI  14
MOSINEE        PTSUNNY   23  21  93 SW6       29.68R WCI  16
MARSHFIELD     FAIR      24  20  84 SW8       29.65S WCI  15
STEVENS POINT  FAIR      23  20  89 SW7       29.69R WCI  14
WAUPACA        FAIR      29  21  74 S9        29.69F WCI  20
WAUTOMA        FAIR      27  21  78 SW8       29.73F WCI  19
WISC RAPIDS    FAIR      27  19  72 SW9       29.70S WCI  18
CAMP DOUGLAS   PTSUNNY   30  23  74 SW5       29.70F WCI  25
$$

WIZ011>013-019>022-031-037>040-048>050-191600-
NORTHEAST WISCONSIN

CITY           SKY/WX    TMP DP  RH WIND       PRES   REMARKS
ANTIGO         FAIR      24  20  86 SW10      29.64R WCI  13
SHAWANO        FAIR      26  20  78 SW3       29.67F
OCONTO         FAIR      25  19  78 S6        29.68F WCI  18
STURGEON BAY   FAIR      26  20  77 S9        29.70F WCI  17
GREEN BAY      FAIR      25  19  78 S10       29.70F WCI  15
MANITOWOC      FAIR      25  20  81 S9        29.75F WCI  15
APPLETON       PTSUNNY   25  18  74 SW13      29.70F WCI  13
CLINTONVILLE   FAIR      27  19  74 SW6       29.68F WCI  20
OSHKOSH        FAIR      26  20  77 SW12      29.72F WCI  16
$$

WIZ032>034-041-042-053>061-191600-
SOUTHWEST WISCONSIN

CITY           SKY/WX    TMP DP  RH WIND       PRES   REMARKS
LA CROSSE      FAIR      29  22  75 S12G20    29.71F WCI  19
SPARTA         FAIR      31  23  74 S3        29.71F
VIROQUA        FAIR      28  24  84 S13G18    29.71F WCI  18
BOSCOBEL       FAIR      30  23  75 SW5       29.78F WCI  25
PRAIRIE DU CHI FAIR      31  21  65 S3        29.78R
PLATTEVILLE    FAIR      29  24  82 S12       29.80F WCI  19
$$

WIZ056-057-062-063-064-067-068-191600-
SOUTH CENTRAL WISCONSIN

CITY           SKY/WX    TMP DP  RH WIND       PRES   REMARKS
REEDSBURG      FAIR      28  22  77 S7        29.75R WCI  21
BARABOO/DELLS  FAIR      29  21  72 SW9       29.74S WCI  21
LONE ROCK      FAIR      29  23  78 S7        29.79S WCI  22
MINERAL POINT  FAIR      30  27  86 S14       29.78S FOG     WCI  20
MADISON        CLOUDY    29  21  72 SW6       29.79S WCI  23
MIDDLETON      FAIR      31  23  71 SW12      29.79R WCI  22
WATERTOWN      NOT AVBL
MONROE         FAIR      27  21  80 S13       29.80F WCI  16
JANESVILLE     CLOUDY    28  21  74 SW9       29.83F WCI  20
$$

WIZ051-052-058>065-066-070>072-191600-
SOUTHEAST WISCONSIN

CITY           SKY/WX    TMP DP  RH WIND       PRES   REMARKS
MILWAUKEE      PTSUNNY   31  22  69 SW13      29.82F WCI  21
WAUKESHA       SUNNY     28  19  69 SW12      29.81  WCI  18
MILWAUKEE/TIMM SUNNY     30  19  64 SW10      29.81F WCI  21
RACINE         FAIR      31  21  66 SW9G20    29.85F WCI  23
BURLINGTON     FAIR      30  21  68 SW12      29.83S WCI  21
KENOSHA        FAIR      31  20  63 SW15      29.84S WCI  20
FOND DU LAC    FAIR      28  19  69 SW16      29.74F WCI  16
SHEBOYGAN      FAIR      27  22  81 SW10      29.75F WCI  17
WEST BEND      FAIR      28  21  74 SW12      29.78S WCI  18
JUNEAU         FAIR      25  20  80 S10       29.78F WCI  15
$$

LSZ147-162-191600-
LAKE SUPERIOR

STATION/POSITION TIME  TEMP    WIND        PRES    WAVE
                       AIR SEA DIR/SP/G            HT/PER
                 (UTC) (F)     (DEG/KT/KT) (MB)    (FT/S)
DEVILS ISLAND    1500   32     200/  9/ 12  999.0F
SAXON HARBOR     1440   35     200/ 14/ 19  999.0F
$$

LMZ867-665-643>646-191600-
LAKE MICHIGAN

STATION/POSITION TIME  TEMP    WIND        PRES    WAVE
                       AIR SEA DIR/SP/G            HT/PER
                 (UTC) (F)     (DEG/KT/KT) (MB)    (FT/S)
NORTHPORT PIER   1440   27     160/  2/ 29 1005.4F
KEWAUNEE LAKESHO 1442   25     180/ 10/ 11 1006.2F
SHEBOYGAN LAKESH 1500   29     190/ 15/ 17 1008.6F
PORT WASHINGTON  1430   31     220/  5/  9 1010.5R
MILWAUKEE LAKESH 1450   31     230/ 12/ 15   N/A
KENOSHA   LAKESH 1500   32     220/ 12/ 16 1011.2
$$

TC  - TEMPERATURE IN CELSIUS
VSB - VISIBILITY IN STATUTE MILES
WCI - WIND CHILL INDEX
HX  - HEAT INDEX





USA.gov is the U.S. government's official web portal to all federal, state and local government web resources and services.